Location: Berg
(47.2344°N, 9.5296°E)
Time: 03:41:53
(UTC+00:00)

Meteor 2-5 Rocket - Visible Passes

Search period start: 13 May 2021 00:00
Search period end: 23 May 2021 00:00
Orbit: 832 x 913 km, 81.2° (Epoch: 12 May)

Date Brightness Start Highest point End Pass type
(mag) Time Alt. Az. Time Alt. Az. Time Alt. Az.
13 May 4.8 01:36:47 10° SSE 01:42:02 42° E 01:47:17 10° NNE visible
14 May 4.7 01:31:38 12° SSE 01:36:31 43° E 01:41:48 10° NNE visible
15 May 4.6 01:26:27 14° SSE 01:30:59 45° E 01:36:18 10° NNE visible
16 May 4.5 01:21:14 16° SSE 01:25:27 47° E 01:30:49 10° NNE visible
16 May 4.8 03:04:16 10° SW 03:09:05 28° WNW 03:13:52 10° N visible
17 May 4.4 01:15:58 18° SSE 01:19:56 49° E 01:25:19 10° NNE visible
17 May 4.9 02:58:51 10° WSW 03:03:36 27° WNW 03:08:18 10° N visible
18 May 4.3 01:10:42 20° SSE 01:14:25 51° E 01:19:49 10° NNE visible
18 May 5.0 02:53:27 10° WSW 02:58:06 26° WNW 03:02:44 10° N visible
19 May 4.2 01:05:25 22° SSE 01:08:54 53° E 01:14:18 10° NNE visible
19 May 5.0 02:48:03 10° WSW 02:52:38 25° WNW 02:57:10 10° N visible
20 May 4.2 01:00:07 24° SSE 01:03:23 56° E 01:08:48 10° NNE visible
20 May 5.1 02:42:39 10° WSW 02:47:08 24° WNW 02:51:36 10° NNW visible
21 May 4.1 00:54:47 26° SSE 00:57:51 58° E 01:03:18 10° NNE visible
21 May 5.1 02:37:15 10° WSW 02:41:40 23° WNW 02:46:02 10° NNW visible
22 May 4.0 00:49:26 28° SSE 00:52:19 60° E 00:57:47 10° NNE visible
22 May 5.2 02:31:54 10° WSW 02:36:10 22° WNW 02:40:28 10° NNW visible
